| time (UTC) | temp F | wind direction | speed MPH | gust MPH | rain 1hr in | rain 24hr in | rain mn in | humidity % | barometer mb |
| 20260831124602 | 77 | 107 | 1.0 | 3.0 | 0.00 | 0.00 | 0.00 | 100 | 1016.7 |
| 20260831123056 | 77 | 130 | 0.0 | 0.0 | 0.00 | 0.00 | 0.00 | 100 | 1016.5 |
| 20260831121608 | 77 | 130 | 0.0 | 0.0 | 0.00 | 0.00 | 0.00 | 100 | 1016.4 |
| 20260831120054 | 77 | 130 | 0.0 | 1.0 | 0.00 | 0.00 | 0.00 | 100 | 1016.4 |
| 20260831114555 | 77 | 130 | 0.0 | 0.0 | 0.00 | 0.00 | 0.00 | 100 | 1016.3 |
| 20260831113053 | 77 | 130 | 0.0 | 2.0 | 0.00 | 0.00 | 0.00 | 100 | 1016.2 |
| 20260831111556 | 77 | 130 | 0.0 | 2.0 | 0.00 | 0.00 | 0.00 | 100 | 1016.3 |
| 20260831110059 | 77 | 130 | 0.0 | 2.0 | 0.00 | 0.00 | 0.00 | 100 | 1016.3 |
| 20260831104550 | 77 | 160 | 0.0 | 2.0 | 0.00 | 0.00 | 0.00 | 99 | 1016.2 |
| 20260831103053 | 78 | 161 | 1.0 | 3.0 | 0.00 | 0.00 | 0.00 | 99 | 1016.1 |
| 20260831101553 | 78 | 161 | 0.0 | 0.0 | 0.00 | 0.00 | 0.00 | 99 | 1016.2 |
| 20260831100047 | 78 | 161 | 0.0 | 0.0 | 0.00 | 0.00 | 0.00 | 99 | 1016.3 |
| 20260831094547 | 78 | 161 | 0.0 | 0.0 | 0.00 | 0.00 | 0.00 | 99 | 1016.3 |
| 20260831093046 | 78 | 161 | 0.0 | 0.0 | 0.00 | 0.00 | 0.00 | 99 | 1016.1 |
| 20260831091548 | 78 | 161 | 0.0 | 0.0 | 0.00 | 0.00 | 0.00 | 98 | 1016.1 |
| 20260831090045 | 78 | 161 | 0.0 | 0.0 | 0.00 | 0.00 | 0.00 | 98 | 1016.2 |
| 20260831084545 | 78 | 161 | 0.0 | 1.0 | 0.00 | 0.00 | 0.00 | 98 | 1016.1 |
| 20260831083142 | 78 | 161 | 0.0 | 0.0 | 0.00 | 0.00 | 0.00 | 97 | 1016.2 |
| 20260831081542 | 78 | 161 | 0.0 | 2.0 | 0.00 | 0.00 | 0.00 | 97 | 1016.2 |
| 20260831080039 | 79 | 161 | 0.0 | 0.0 | 0.00 | 0.00 | 0.00 | 96 | 1016.3 |
| 20260831074539 | 79 | 161 | 0.0 | 1.0 | 0.00 | 0.00 | 0.00 | 96 | 1016.2 |
| 20260831073037 | 79 | 161 | 0.0 | 1.0 | 0.00 | 0.00 | 0.00 | 96 | 1016.2 |
| 20260831071540 | 79 | 161 | 0.0 | 2.0 | 0.00 | 0.00 | 0.00 | 95 | 1016.5 |
| 20260831070034 | 80 | 161 | 0.0 | 0.0 | 0.00 | 0.00 | 0.00 | 94 | 1016.7 |
| 20260831064534 | 80 | 161 | 0.0 | 1.0 | 0.00 | 0.00 | 0.00 | 94 | 1016.7 |
| 20260831063036 | 80 | 169 | 0.0 | 3.0 | 0.00 | 0.00 | 0.00 | 93 | 1016.5 |
| 20260831061528 | 80 | 177 | 0.0 | 5.0 | 0.00 | 0.00 | 0.00 | 92 | 1016.4 |
| 20260831060029 | 81 | 162 | 0.0 | 3.0 | 0.00 | 0.00 | 0.00 | 92 | 1016.2 |
| 20260831054525 | 81 | 157 | 1.0 | 4.0 | 0.00 | 0.00 | 0.00 | 91 | 1016.2 |
| 20260831053024 | 82 | 147 | 0.0 | 5.0 | 0.00 | 0.00 | 0.00 | 90 | 1016.2 |
| 20260831051529 | 82 | 161 | 2.0 | 5.0 | 0.00 | 0.00 | 0.00 | 89 | 1016.1 |
| 20260831050018 | 82 | 158 | 1.0 | 6.0 | 0.00 | 0.00 | 0.00 | 88 | 1016.0 |
| 20260831044518 | 83 | 170 | 2.0 | 7.0 | 0.00 | 0.00 | 0.00 | 87 | 1016.0 |
| 20260831043019 | 83 | 169 | 2.0 | 5.0 | 0.00 | 0.00 | 0.00 | 86 | 1015.8 |
| 20260831041516 | 84 | 163 | 2.0 | 7.0 | 0.00 | 0.00 | 0.00 | 85 | 1016.0 |
| 20260831040032 | 85 | 158 | 3.0 | 7.0 | 0.00 | 0.00 | 0.00 | 84 | 1016.0 |
| 20260831034516 | 85 | 122 | 2.0 | 8.0 | 0.00 | 0.00 | 0.00 | 83 | 1015.8 |
| 20260831033014 | 86 | 163 | 2.0 | 6.0 | 0.00 | 0.00 | 0.00 | 82 | 1015.6 |
| 20260831031514 | 86 | 136 | 3.0 | 9.0 | 0.00 | 0.00 | 0.00 | 81 | 1015.4 |
| 20260831030013 | 87 | 187 | 1.0 | 5.0 | 0.00 | 0.00 | 0.00 | 80 | 1015.2 |
| 20260831024513 | 88 | 155 | 3.0 | 5.0 | 0.00 | 0.00 | 0.00 | 79 | 1014.9 |
| 20260831023014 | 89 | 165 | 2.0 | 7.0 | 0.00 | 0.00 | 0.00 | 77 | 1014.6 |
| 20260831021511 | 89 | 133 | 3.0 | 8.0 | 0.00 | 0.00 | 0.00 | 76 | 1014.4 |
| 20260831020012 | 90 | 150 | 2.0 | 7.0 | 0.00 | 0.00 | 0.00 | 74 | 1014.1 |
| 20260831014511 | 91 | 121 | 3.0 | 8.0 | 0.00 | 0.00 | 0.00 | 72 | 1013.8 |
| 20260831013010 | 92 | 150 | 3.0 | 5.0 | 0.00 | 0.00 | 0.00 | 69 | 1013.4 |
| 20260831011609 | 92 | 121 | 2.0 | 6.0 | 0.00 | 0.00 | 0.00 | 66 | 1013.3 |
| 20260831010012 | 93 | 129 | 2.0 | 4.0 | 0.00 | 0.00 | 0.00 | 65 | 1013.2 |
| 20260831004509 | 94 | 142 | 1.0 | 6.0 | 0.00 | 0.00 | 0.00 | 65 | 1013.1 |
| 20260831003007 | 94 | 148 | 3.0 | 9.0 | 0.00 | 0.00 | 0.00 | 64 | 1012.9 |
| 20260831001509 | 95 | 153 | 2.0 | 10.0 | 0.00 | 0.00 | 0.00 | 64 | 1012.7 |
| 20260831000007 | 96 | 129 | 2.0 | 10.0 | 0.00 | 0.00 | 0.00 | 64 | 1012.7 |
| 20260830234510 | 96 | 126 | 0.0 | 4.0 | 0.00 | 0.00 | 0.00 | 65 | 1012.7 |
| 20260830233005 | 98 | 142 | 1.0 | 9.0 | 0.00 | 0.00 | 0.00 | 61 | 1012.8 |
| 20260830231504 | 100 | 127 | 3.0 | 8.0 | 0.00 | 0.00 | 0.00 | 57 | 1012.8 |
| 20260830230003 | 100 | 104 | 1.0 | 4.0 | 0.00 | 0.00 | 0.00 | 57 | 1012.6 |
| 20260830224502 | 99 | 169 | 1.0 | 10.0 | 0.00 | 0.00 | 0.00 | 58 | 1012.7 |
| 20260830223108 | 100 | 119 | 0.0 | 6.0 | 0.00 | 0.00 | 0.00 | 57 | 1012.8 |
| 20260830221609 | 99 | 104 | 0.0 | 7.0 | 0.00 | 0.00 | 0.00 | 58 | 1012.8 |
| 20260830220058 | 99 | 94 | 2.0 | 10.0 | 0.00 | 0.00 | 0.00 | 58 | 1012.8 |
| 20260830214601 | 99 | 148 | 4.0 | 9.0 | 0.00 | 0.00 | 0.00 | 59 | 1013.0 |
| 20260830213052 | 99 | 132 | 3.0 | 8.0 | 0.00 | 0.00 | 0.00 | 60 | 1013.3 |
| 20260830211555 | 99 | 166 | 2.0 | 7.0 | 0.00 | 0.00 | 0.00 | 60 | 1013.5 |
| 20260830210048 | 99 | 157 | 2.0 | 9.0 | 0.00 | 0.00 | 0.00 | 61 | 1013.8 |
| 20260830204545 | 98 | 171 | 2.0 | 7.0 | 0.00 | 0.00 | 0.00 | 61 | 1014.2 |
| 20260830203042 | 98 | 215 | 3.0 | 7.0 | 0.00 | 0.00 | 0.00 | 63 | 1014.4 |
| 20260830201542 | 98 | 169 | 3.0 | 8.0 | 0.00 | 0.00 | 0.00 | 63 | 1014.7 |
| 20260830200034 | 96 | 148 | 4.0 | 10.0 | 0.00 | 0.00 | 0.00 | 64 | 1014.9 |
| 20260830194530 | 96 | 129 | 1.0 | 6.0 | 0.00 | 0.00 | 0.00 | 65 | 1015.1 |
| 20260830193027 | 96 | 126 | 4.0 | 8.0 | 0.00 | 0.00 | 0.00 | 66 | 1015.4 |
| 20260830191524 | 96 | 161 | 3.0 | 9.0 | 0.00 | 0.00 | 0.00 | 66 | 1015.7 |
| 20260830184513 | 95 | 165 | 4.0 | 11.0 | 0.00 | 0.00 | 0.00 | 68 | 1016.3 |
| 20260830183010 | 94 | 93 | 0.0 | 9.0 | 0.00 | 0.00 | 0.00 | 68 | 1016.5 |
| 20260830181503 | 94 | 130 | 0.0 | 8.0 | 0.00 | 0.00 | 0.00 | 69 | 1016.9 |
| 20260830180107 | 94 | 105 | 1.0 | 7.0 | 0.00 | 0.00 | 0.00 | 70 | 1016.9 |
| 20260830174612 | 93 | 159 | 2.0 | 8.0 | 0.00 | 0.00 | 0.00 | 72 | 1017.3 |
| 20260830173057 | 92 | 138 | 2.0 | 8.0 | 0.00 | 0.00 | 0.00 | 73 | 1017.4 |
| 20260830171549 | 91 | 134 | 2.0 | 8.0 | 0.00 | 0.00 | 0.00 | 76 | 1017.7 |
| 20260830170045 | 89 | 221 | 4.0 | 9.0 | 0.00 | 0.00 | 0.00 | 77 | 1017.8 |
| 20260830164546 | 89 | 195 | 2.0 | 7.0 | 0.00 | 0.00 | 0.00 | 78 | 1017.9 |
| 20260830163041 | 89 | 202 | 3.0 | 8.0 | 0.00 | 0.00 | 0.00 | 79 | 1018.1 |
| 20260830161540 | 87 | 206 | 4.0 | 8.0 | 0.00 | 0.00 | 0.00 | 83 | 1018.2 |
| 20260830160037 | 87 | 163 | 2.0 | 8.0 | 0.00 | 0.00 | 0.00 | 84 | 1018.2 |
| 20260830154533 | 85 | 204 | 2.0 | 8.0 | 0.00 | 0.00 | 0.00 | 88 | 1018.1 |
| 20260830153029 | 84 | 180 | 2.0 | 9.0 | 0.00 | 0.00 | 0.00 | 90 | 1018.1 |
| 20260830151527 | 83 | 191 | 1.0 | 3.0 | 0.00 | 0.00 | 0.00 | 93 | 1018.0 |
| 20260830150030 | 82 | 209 | 4.0 | 8.0 | 0.00 | 0.00 | 0.00 | 93 | 1017.9 |
| 20260830144530 | 82 | 179 | 3.0 | 7.0 | 0.00 | 0.00 | 0.00 | 94 | 1018.1 |
| 20260830143023 | 82 | 177 | 1.0 | 5.0 | 0.00 | 0.00 | 0.00 | 95 | 1018.1 |
| 20260830141536 | 81 | 96 | 0.0 | 1.0 | 0.00 | 0.00 | 0.00 | 97 | 1018.0 |
| 20260830140021 | 79 | 96 | 0.0 | 2.0 | 0.00 | 0.00 | 0.00 | 97 | 1017.9 |
| 20260830134521 | 78 | 96 | 0.0 | 3.0 | 0.00 | 0.00 | 0.00 | 99 | 1017.8 |
| 20260830133021 | 77 | 96 | 0.0 | 3.0 | 0.00 | 0.00 | 0.00 | 99 | 1017.8 |
| 20260830131522 | 76 | 96 | 1.0 | 4.0 | 0.00 | 0.00 | 0.00 | 100 | 1017.8 |
| 20260830130022 | 75 | 163 | 0.0 | 3.0 | 0.00 | 0.00 | 0.00 | 100 | 1017.7 |